Hourly Data Report for September 22, 2019

All times are specified in Local Standard Time (LST). Add 1 hour to adjust for Daylight Saving Time where and when it is observed.

CHATHAM KENT
ONTARIO
Current Station Operator: NAVCAN

42°18'21.000" N
82°04'57.000" W
196.60 m
6131414
YCK

Download Data

Hourly Data (September 2019)
Hourly Data Report for September 22, 2019
TIME Temp Definition
°C
Dew Point Temp Definition
°C
Rel Hum Definition
%
Wind Dir Definition
10's deg

Wind Spd Definition
km/h
Visibility Definition
km
Stn Press Definition
kPa
Hmdx Definition


Wind Chill Definition


Weather Definition


00:00 22.4 21.2 93 20 11 16.1 99.58 31   LegendNANA
01:00 22.4 20.9 91 21 15 16.1 99.54 31   LegendNANA
02:00 22.1 20.8 92 21 13 16.1 99.50 30   LegendNANA
03:00 22.3 20.4 89 21 17 16.1 99.44 30   LegendNANA
04:00 22.4 20.2 87 21 15 16.1 99.46 30   LegendNANA
05:00 22.3 20.1 87 22 17 16.1 99.47 30   LegendNANA
06:00 22.4 19.8 85 21 21 16.1 99.47 30   LegendNANA
07:00 22.5 19.7 84 22 18 16.1 99.45 30   LegendNANA
08:00 23.2 19.6 80 22 22 16.1 99.44 30   LegendNANA
09:00 23.9 19.1 74 22 22 16.1 99.43 31   LegendNANA
10:00 25.9 18.9 65 23 22 16.1 99.38 33   LegendNANA
11:00 26.8 19.0 62 22 26 16.1 99.34 34   LegendNANA
12:00 27.2 17.8 56 23 30 16.1 99.26 33   LegendNANA
13:00 28.0 17.3 52 22 28 16.1 99.17 33   LegendNANA
14:00 28.4 16.9 49 22 35 16.1 99.09 34   LegendNANA
15:00 27.9 17.0 51 23 30 16.1 99.03 33   LegendNANA
16:00 28.7 16.7 48 23 35 16.1 98.98 34   LegendNANA
17:00 26.8 17.5 56 22 22 16.1 98.95 32   LegendNANA
18:00 25.1 17.4 62 22 15 16.1 98.91 31   LegendNANA
19:00 24.3 18.4 69 21 15 16.1 98.88 31   LegendNANA
20:00 24.4 17.8 66 21 18 16.1 98.86 30   LegendNANA
21:00 24.8 17.4 63 22 18 16.1 98.84 30   LegendNANA
22:00 24.1 17.7 67 21 21 16.1 98.79 30   LegendNANA
23:00 24.1 17.2 65 22 30 16.1 98.73 30   LegendNANA

Notes on Data Quality.

Legend

  • E = Estimated
  • M = Missing
  • NA = Not Available
Date modified: